Augusta, GA

10:41 PM EDT on September 20, 2017 (GMT -0400)
Daniel

Weather History for KDNL - August, 2013

Change the Weather History Date:

Thursday, August 1, 2013

  Actual Average Record
Temperature  
Mean Temperature 80 °F -  
Max Temperature 87 °F 89 °F 106 °F (1999)
Min Temperature 72 °F 70 °F 61 °F (1997)
Cooling Degree Days 15    
Month to date cooling degree days 15  
Year to date cooling degree days 1185  
Since 1 June cooling degree days 891  
Growing Degree Days 28 (Base 50)    
Moisture  
Dew Point 71 °F    
Average Humidity 83    
Maximum Humidity 100    
Minimum Humidity 61    
Precipitation  
Precipitation 0.12 in - - ()
Month to date precipitation 0.12  
Year to date precipitation 40.15  
Sea Level Pressure  
Sea Level Pressure 29.96 in    
Wind  
Wind Speed 5 mph (SSW)    
Max Wind Speed 12 mph    
Max Gust Speed 16 mph    
Visibility 9 miles    
Events Rain    
Averages and records for this station are not official NWS values.
T = Trace of Precipitation, MM = Missing Value Source: NWS Daily Summary

Daily Weather History Graph

Daily Weather History Graph

Search for Another Location

Airport or City:

Trip Planner

Search our weather history database for the weather conditions in past years. The results will help you decide how hot, cold, wet, or windy it might be!

Date:

Astronomy

Aug. 01, 2013 Rise Set
Actual Time 6:40 AM EDT 8:27 PM EDT
Civil Twilight 6:13 AM EDT 8:54 PM EDT
Nautical Twilight 5:40 AM EDT 9:27 PM EDT
Astronomical Twilight 5:06 AM EDT 10:02 PM EDT
Moon 2:17 AM EDT (8/1) 4:33 PM EDT (8/1)
Length of Visible Light 14h 41m
Length of Day
13h 46m
Waning Crescent, 23% of the Moon is Illuminated
Aug 1
Waning Crescent
Aug 6
New
Aug 14
First Quarter
Aug 20
Full
Aug 28
Last Quarter

Hourly Weather History & Observations

Time (EDT) Temp. Heat Index Dew Point Humidity Pressure Visibility Wind Dir Wind Speed Gust Speed Precip Events Conditions
12:53 AM 73.9 °F - 72.0 °F 93% 30.01 in 8.0 mi Calm Calm - N/A   Overcast
1:20 AM 73.4 °F - 71.6 °F 94% 30.01 in 5.0 mi SSW 4.6 mph - N/A   Overcast
1:53 AM 73.0 °F - 72.0 °F 96% 29.99 in 5.0 mi Calm Calm - N/A   Mostly Cloudy
2:29 AM 73.4 °F - 71.6 °F 94% 30.00 in 6.0 mi SW 3.5 mph - N/A   Partly Cloudy
2:53 AM 73.0 °F - 72.0 °F 96% 29.98 in 5.0 mi Calm Calm - N/A   Partly Cloudy
3:53 AM 73.0 °F - 71.1 °F 93% 29.98 in 9.0 mi SSW 3.5 mph - N/A   Overcast
4:26 AM 73.4 °F - 71.6 °F 94% 29.99 in 10.0 mi SSW 4.6 mph - N/A   Overcast
4:53 AM 72.0 °F - 71.1 °F 97% 29.97 in 10.0 mi Calm Calm - N/A   Overcast
5:53 AM 72.0 °F - 70.0 °F 93% 29.97 in 4.0 mi Variable 4.6 mph - 0.03 in Rain Heavy Rain
6:21 AM 71.6 °F - 69.8 °F 94% 29.98 in 2.5 mi Calm Calm - 0.09 in Rain Light Rain
6:28 AM 71.6 °F - 69.8 °F 94% 29.98 in 8.0 mi Calm Calm - 0.09 in Rain Light Rain
6:53 AM 72.0 °F - 70.0 °F 93% 29.98 in 10.0 mi Calm Calm - 0.09 in   Overcast
7:09 AM 71.6 °F - 69.8 °F 94% 29.99 in 10.0 mi West 3.5 mph - N/A   Overcast
7:53 AM 72.0 °F - 70.0 °F 93% 29.99 in 8.0 mi Calm Calm - 0.00 in   Overcast
8:53 AM 73.0 °F - 71.1 °F 93% 30.00 in 10.0 mi Variable 3.5 mph - 0.00 in   Mostly Cloudy
9:53 AM 73.0 °F - 71.1 °F 93% 29.99 in 10.0 mi Variable 3.5 mph - 0.00 in   Mostly Cloudy
10:53 AM 77.0 °F - 71.1 °F 82% 29.99 in 10.0 mi WSW 4.6 mph - N/A   Mostly Cloudy
11:53 AM 81.0 °F 84.9 °F 71.1 °F 72% 29.97 in 10.0 mi Variable 3.5 mph - N/A   Partly Cloudy
12:40 PM 84.2 °F 89.6 °F 71.6 °F 66% 29.98 in 10.0 mi Variable 5.8 mph - N/A   Mostly Cloudy
12:53 PM 84.0 °F 89.0 °F 71.1 °F 65% 29.96 in 10.0 mi Variable 4.6 mph - N/A   Mostly Cloudy
1:15 PM 82.4 °F 87.2 °F 71.6 °F 70% 29.97 in 10.0 mi Variable 5.8 mph - N/A   Mostly Cloudy
1:23 PM 84.2 °F 88.4 °F 69.8 °F 62% 29.97 in 10.0 mi SW 6.9 mph - N/A   Mostly Cloudy
1:53 PM 84.0 °F 88.4 °F 70.0 °F 63% 29.94 in 10.0 mi Variable 5.8 mph - N/A   Scattered Clouds
2:53 PM 84.9 °F 88.8 °F 69.1 °F 59% 29.92 in 10.0 mi Variable 5.8 mph - N/A   Scattered Clouds
3:53 PM 84.9 °F 90.1 °F 71.1 °F 63% 29.91 in 10.0 mi SW 6.9 mph - N/A   Mostly Cloudy
4:53 PM 86.0 °F 93.0 °F 73.0 °F 65% 29.90 in 10.0 mi South 9.2 mph - N/A   Scattered Clouds
5:53 PM 82.9 °F 88.8 °F 73.0 °F 72% 29.90 in 10.0 mi SSE 8.1 mph - N/A   Partly Cloudy
6:53 PM 82.9 °F 88.8 °F 73.0 °F 72% 29.92 in 10.0 mi SSE 10.4 mph - N/A   Mostly Cloudy
7:53 PM 81.0 °F 85.2 °F 72.0 °F 74% 29.92 in 10.0 mi South 9.2 mph - N/A   Mostly Cloudy
8:53 PM 79.0 °F - 73.0 °F 82% 29.94 in 10.0 mi SSE 4.6 mph - N/A   Mostly Cloudy
9:53 PM 77.0 °F - 73.0 °F 88% 29.94 in 10.0 mi South 6.9 mph - N/A   Scattered Clouds
10:53 PM 77.0 °F - 73.0 °F 88% 29.96 in 10.0 mi Variable 3.5 mph - N/A   Clear
11:53 PM 77.0 °F - 72.0 °F 84% 29.94 in 10.0 mi SSW 5.8 mph - N/A   Partly Cloudy